GW3162 Weather Reports


time (UTC)temp
F
wind
direction
speed
knots
gust
knots
rain 1hr
in
rain 24hr
in
rain mn
in
humidity
%
barometer
mb
20260506024609 68 307 0.0 1.7 0.00 0.00 0.00 34 1011.4
20260506023110 69 348 1.7 3.5 0.00 0.00 0.00 34 1011.6
20260506021613 71 356 3.5 6.1 0.00 0.00 0.00 32 1011.2
20260506020109 72 347 1.7 3.5 0.00 0.00 0.00 28 1011.1
20260506014615 72 346 2.6 4.3 0.00 0.00 0.00 28 1010.9
20260506013108 74 349 1.7 4.3 0.00 0.00 0.00 26 1010.9
20260506011606 75 200 3.5 6.1 0.00 0.00 0.00 25 1010.8
20260506010110 74 356 2.6 7.8 0.00 0.00 0.00 26 1010.9
20260506004606 73 23 1.7 3.5 0.00 0.00 0.00 27 1010.8
20260506003112 73 6 1.7 3.5 0.00 0.00 0.00 26 1010.8
20260506001617 73 348 1.7 3.5 0.00 0.00 0.00 25 1010.7
20260506000106 73 351 2.6 5.2 0.00 0.00 0.00 26 1010.7
20260505234616 73 2 1.7 5.2 0.00 0.00 0.00 25 1010.7
20260505233106 75 358 1.7 2.6 0.00 0.00 0.00 24 1010.8
20260505231608 75 36 2.6 6.1 0.00 0.00 0.00 23 1010.8
20260505230110 75 0 3.5 6.1 0.00 0.00 0.00 24 1011.0
20260505224606 75 11 2.6 6.1 0.00 0.00 0.00 25 1011.1
20260505223108 76 4 4.3 7.0 0.00 0.00 0.00 24 1011.1
20260505221606 76 0 4.3 8.7 0.00 0.00 0.00 24 1011.2
20260505220112 76 0 4.3 6.1 0.00 0.00 0.00 23 1011.1
20260505214606 76 4 3.5 5.2 0.00 0.00 0.00 24 1011.2
20260505213111 75 3 2.6 5.2 0.00 0.00 0.00 24 1011.3
20260505211609 75 5 2.6 6.1 0.00 0.00 0.00 26 1011.3
20260505210110 75 5 2.6 5.2 0.00 0.00 0.00 25 1011.4
20260505203107 75 2 1.7 2.6 0.00 0.00 0.00 24 1011.4
20260505201608 75 6 2.6 5.2 0.00 0.00 0.00 27 1011.7
20260505200107 74 347 2.6 6.1 0.00 0.00 0.00 27 1011.9
20260505194606 74 356 1.7 3.5 0.00 0.00 0.00 30 1011.9
20260505193108 73 352 5.2 8.7 0.00 0.00 0.00 28 1011.9
20260505191612 73 2 4.3 7.0 0.00 0.00 0.00 30 1011.8
20260505190109 72 0 6.1 9.6 0.00 0.00 0.00 29 1011.9
20260505184611 72 9 3.5 4.3 0.00 0.00 0.00 33 1011.9
20260505183108 71 357 6.1 9.6 0.00 0.00 0.00 32 1011.8
20260505180108 70 8 3.5 6.1 0.00 0.00 0.00 34 1011.7
20260505174608 69 3 3.5 4.3 0.00 0.00 0.00 36 1011.6
20260505173112 69 357 4.3 7.0 0.00 0.00 0.00 34 1011.6
20260505170109 69 347 5.2 8.7 0.00 0.00 0.00 34 1011.3
20260505164607 68 9 2.6 5.2 0.00 0.00 0.00 37 1011.2
20260505163107 67 354 4.3 6.1 0.00 0.00 0.00 37 1011.1
20260505160106 66 357 3.5 7.0 0.00 0.00 0.00 37 1011.1
20260505153106 64 359 1.7 3.5 0.00 0.00 0.00 37 1011.0
20260505151607 64 329 0.0 1.7 0.00 0.00 0.00 35 1011.0
20260505150107 64 340 1.7 3.5 0.00 0.00 0.00 34 1010.9
20260505140106 57 178 0.0 1.7 0.00 0.00 0.00 43 1010.4
20260505130109 52 244 0.9 3.5 0.00 0.00 0.00 43 1010.0
20260505124607 50 241 1.7 2.6 0.00 0.00 0.00 46 1010.0
20260505123107 50 242 2.6 3.5 0.00 0.00 0.00 46 1009.9
20260505121606 52 240 0.0 0.0 0.00 0.00 0.00 45 1009.8
20260505120108 54 248 2.6 3.5 0.00 0.00 0.00 41 1009.6
20260505113106 54 246 3.5 4.3 0.00 0.00 0.00 42 1009.4
20260505111607 53 234 1.7 2.6 0.00 0.00 0.00 44 1009.3
20260505110106 52 258 3.5 7.0 0.00 0.00 0.00 45 1009.3
20260505101607 51 250 2.6 3.5 0.00 0.00 0.00 45 1008.8
20260505100110 51 252 0.9 1.7 0.00 0.00 0.00 47 1008.8
20260505094608 51 260 0.9 1.7 0.00 0.00 0.00 47 1008.7
20260505091606 56 248 0.0 0.9 0.00 0.00 0.00 40 1008.8
20260505090111 56 218 0.0 1.7 0.00 0.00 0.00 41 1008.8
20260505084606 56 218 0.9 1.7 0.00 0.00 0.00 41 1008.8
20260505083110 56 273 0.9 3.5 0.00 0.00 0.00 41 1009.0
20260505081607 55 211 0.9 1.7 0.00 0.00 0.00 42 1009.1
20260505080114 54 239 0.9 2.6 0.00 0.00 0.00 47 1009.1
20260505073108 59 0 0.0 0.0 0.00 0.00 0.00 38 1008.7
20260505071607 60 227 2.6 3.5 0.00 0.00 0.00 39 1008.6
20260505064610 60 220 0.9 3.5 0.00 0.00 0.00 41 1008.4
20260505063108 60 220 1.7 2.6 0.00 0.00 0.00 41 1008.4
20260505061606 61 229 1.7 2.6 0.00 0.00 0.00 39 1008.3
20260505054609 63 338 0.9 1.7 0.00 0.00 0.00 35 1008.2
20260505053111 63 200 0.9 1.7 0.00 0.00 0.00 35 1008.1
20260505051606 61 224 0.9 2.6 0.00 0.00 0.00 36 1007.9
20260505050109 60 238 0.9 1.7 0.00 0.00 0.00 39 1007.9
20260505041609 62 273 0.0 1.7 0.00 0.00 0.00 36 1007.6
20260505040109 64 316 0.0 0.9 0.00 0.00 0.00 33 1007.4
20260505034605 65 218 0.9 1.7 0.00 0.00 0.00 32 1007.2
20260505033107 67 210 0.0 1.7 0.00 0.00 0.00 30 1006.9
20260505031607 69 265 0.9 2.6 0.00 0.00 0.00 27 1006.8
20260505030107 69 299 1.7 2.6 0.00 0.00 0.00 27 1006.6